Total_Precipitation_Accumulation
0.00 0.00 0.00 0.00 0.00 0.00 0.00 0.00 0.00 0.00 0.00 0.00 0.02 0.05 0.05 0.07 0.11 0.15 0.21 0.21 0.17 0.14 0.08 0.04 0.01 0.00 0.00 0.00 0.00 0.00 0.00 0.00 0.00 0.00 0.00 0.00 0.00 0.01 0.02 0.02 0.04 0.04 0.01
0.00 0.00 0.00 0.00 0.00 0.00 0.00 0.00 0.00 0.00 0.00 0.00 0.00 0.03 0.06 0.05 0.07 0.12 0.15 0.21 0.22 0.18 0.11 0.06 0.03 0.00 0.00 0.00 0.00 0.00 0.00 0.00 0.00 0.00 0.00 0.01 0.02 0.01 0.00 0.03 0.03 0.04 0.03
0.00 0.00 0.00 0.00 0.00 0.00 0.00 0.00 0.00 0.00 0.00 0.00 0.00 0.01 0.04 0.12 0.11 0.12 0.12 0.14 0.16 0.20 0.18 0.06 0.06 0.03 0.00 0.00 0.00 0.00 0.00 0.00 0.00 0.00 0.00 0.00 0.00 0.01 0.00 0.01 0.05 0.03 0.01
0.00 0.00 0.00 0.00 0.00 0.00 0.00 0.00 0.00 0.00 0.00 0.00 0.00 0.00 0.03 0.08 0.12 0.13 0.11 0.13 0.10 0.11 0.14 0.08 0.03 0.04 0.02 0.00 0.00 0.00 0.00 0.00 0.00 0.00 0.00 0.00 0.00 0.00 0.00 0.00 0.03 0.06 0.02
0.00 0.00 0.00 0.00 0.00 0.00 0.00 0.00 0.00 0.00 0.00 0.00 0.00 0.00 0.01 0.06 0.08 0.13 0.15 0.10 0.10 0.12 0.10 0.11 0.12 0.03 0.02 0.00 0.00 0.00 0.00 0.00 0.00 0.00 0.00 0.00 0.00 0.00 0.00 0.00 0.00 0.03 0.03
0.00 0.00 0.00 0.00 0.00 0.00 0.00 0.00 0.00 0.00 0.00 0.00 0.00 0.00 0.00 0.03 0.05 0.09 0.18 0.16 0.13 0.10 0.10 0.11 0.09 0.05 0.04 0.02 0.01 0.00 0.00 0.00 0.00 0.00 0.00 0.00 0.00 0.00 0.00 0.00 0.00 0.00 0.00
0.00 0.00 0.00 0.00 0.00 0.00 0.00 0.00 0.00 0.00 0.00 0.00 0.00 0.00 0.00 0.00 0.03 0.04 0.11 0.24 0.22 0.17 0.10 0.08 0.14 0.16 0.09 0.08 0.06 0.03 0.00 0.00 0.00 0.00 0.00 0.00 0.00 0.00 0.00 0.00 0.00 0.00 0.00
0.00 0.00 0.00 0.00 0.00 0.00 0.00 0.00 0.00 0.00 0.00 0.00 0.00 0.00 0.00 0.00 0.00 0.04 0.06 0.10 0.20 0.25 0.24 0.17 0.09 0.13 0.24 0.21 0.20 0.18 0.09 0.01 0.00 0.00 0.00 0.00 0.00 0.00 0.00 0.00 0.00 0.00 0.00
0.00 0.00 0.00 0.00 0.00 0.00 0.00 0.00 0.00 0.00 0.00 0.00 0.00 0.00 0.00 0.00 0.00 0.00 0.04 0.11 0.10 0.11 0.26 0.38 0.23 0.11 0.12 0.25 0.25 0.26 0.25 0.18 0.08 0.01 0.00 0.00 0.00 0.00 0.00 0.00 0.00 0.00 0.00
0.00 0.00 0.00 0.00 0.00 0.00 0.00 0.00 0.00 0.00 0.00 0.00 0.00 0.00 0.00 0.00 0.00 0.00 0.01 0.11 0.16 0.12 0.12 0.19 0.39 0.35 0.17 0.10 0.10 0.11 0.16 0.29 0.28 0.17 0.07 0.00 0.00 0.00 0.00 0.00 0.00 0.00 0.00
0.00 0.00 0.00 0.00 0.00 0.00 0.00 0.00 0.00 0.00 0.00 0.00 0.00 0.00 0.00 0.00 0.00 0.00 0.00 0.04 0.32 0.30 0.18 0.16 0.16 0.26 0.35 0.20 0.13 0.06 0.05 0.07 0.16 0.24 0.19 0.07 0.00 0.00 0.00 0.00 0.00 0.00 0.00
0.00 0.00 0.00 0.00 0.00 0.00 0.00 0.00 0.00 0.00 0.00 0.00 0.00 0.00 0.00 0.00 0.00 0.00 0.00 0.00 0.05 0.40 0.41 0.29 0.23 0.21 0.18 0.27 0.21 0.11 0.06 0.03 0.03 0.08 0.11 0.06 0.03 0.01 0.00 0.00 0.00 0.00 0.00
0.00 0.00 0.00 0.00 0.00 0.00 0.00 0.00 0.00 0.01 0.00 0.01 0.01 0.00 0.00 0.00 0.00 0.00 0.00 0.00 0.02 0.11 0.48 0.47 0.33 0.33 0.26 0.19 0.20 0.16 0.07 0.08 0.04 0.03 0.03 0.04 0.03 0.01 0.00 0.00 0.00 0.00 0.00
0.00 0.00 0.00 0.00 0.00 0.00 0.00 0.01 0.01 0.01 0.02 0.02 0.01 0.01 0.00 0.00 0.00 0.00 0.00 0.00 0.01 0.18 0.22 0.44 0.38 0.26 0.39 0.36 0.22 0.14 0.06 0.04 0.08 0.09 0.06 0.05 0.04 0.02 0.00 0.00 0.00 0.00 0.00
0.00 0.00 0.00 0.00 0.00 0.00 0.00 0.01 0.01 0.01 0.02 0.03 0.02 0.01 0.01 0.01 0.01 0.01 0.00 0.00 0.00 0.02 0.24 0.31 0.38 0.30 0.19 0.25 0.37 0.31 0.14 0.06 0.04 0.08 0.12 0.11 0.12 0.07 0.03 0.02 0.01 0.00 0.00
0.00 0.00 0.00 0.00 0.00 0.01 0.02 0.01 0.02 0.02 0.04 0.05 0.05 0.04 0.04 0.03 0.03 0.02 0.01 0.01 0.00 0.00 0.01 0.21 0.36 0.41 0.27 0.14 0.11 0.17 0.29 0.16 0.06 0.07 0.06 0.09 0.11 0.15 0.18 0.11 0.06 0.03 0.02
0.00 0.00 0.00 0.01 0.02 0.03 0.05 0.05 0.06 0.05 0.06 0.07 0.07 0.09 0.09 0.08 0.07 0.05 0.04 0.01 0.01 0.01 0.01 0.03 0.21 0.44 0.39 0.29 0.15 0.10 0.10 0.12 0.07 0.04 0.08 0.09 0.06 0.08 0.12 0.20 0.15 0.15 0.10
0.00 0.00 0.01 0.01 0.01 0.02 0.03 0.04 0.05 0.06 0.08 0.09 0.09 0.10 0.13 0.12 0.14 0.13 0.08 0.05 0.02 0.01 0.02 0.05 0.06 0.16 0.33 0.30 0.27 0.26 0.21 0.12 0.05 0.04 0.04 0.07 0.09 0.06 0.05 0.09 0.14 0.12 0.12
0.01 0.01 0.02 0.03 0.03 0.04 0.05 0.05 0.05 0.06 0.07 0.09 0.09 0.10 0.15 0.20 0.20 0.24 0.21 0.11 0.09 0.03 0.01 0.04 0.08 0.08 0.11 0.20 0.24 0.31 0.45 0.31 0.08 0.03 0.02 0.05 0.06 0.07 0.09 0.08 0.08 0.11 0.13
0.00 0.01 0.02 0.02 0.02 0.02 0.04 0.06 0.06 0.07 0.08 0.11 0.13 0.16 0.19 0.24 0.30 0.29 0.38 0.28 0.16 0.11 0.05 0.06 0.13 0.17 0.13 0.12 0.14 0.29 0.60 0.59 0.20 0.05 0.03 0.06 0.04 0.08 0.08 0.09 0.08 0.09 0.06
0.00 0.01 0.01 0.02 0.03 0.03 0.05 0.06 0.07 0.08 0.12 0.14 0.14 0.17 0.18 0.24 0.32 0.40 0.35 0.50 0.35 0.17 0.13 0.08 0.11 0.22 0.21 0.18 0.18 0.15 0.35 0.48 0.47 0.13 0.04 0.02 0.02 0.03 0.04 0.07 0.09 0.06 0.03
0.00 0.00 0.00 0.01 0.01 0.03 0.04 0.05 0.06 0.08 0.10 0.12 0.13 0.15 0.18 0.21 0.24 0.32 0.36 0.43 0.58 0.40 0.18 0.19 0.12 0.17 0.31 0.27 0.25 0.24 0.19 0.26 0.36 0.39 0.13 0.04 0.04 0.01 0.01 0.02 0.05 0.09 0.06
0.00 0.00 0.00 0.00 0.01 0.02 0.03 0.05 0.06 0.08 0.09 0.10 0.11 0.13 0.16 0.19 0.20 0.23 0.31 0.32 0.47 0.56 0.46 0.30 0.32 0.22 0.19 0.37 0.29 0.31 0.31 0.21 0.17 0.23 0.23 0.24 0.16 0.07 0.05 0.03 0.02 0.02 0.02
0.00 0.00 0.00 0.00 0.00 0.00 0.01 0.02 0.04 0.07 0.09 0.10 0.11 0.12 0.14 0.15 0.16 0.16 0.23 0.29 0.35 0.44 0.53 0.47 0.41 0.41 0.31 0.27 0.49 0.43 0.40 0.31 0.20 0.09 0.14 0.22 0.35 0.40 0.26 0.11 0.07 0.01 0.00
0.00 0.00 0.00 0.00 0.00 0.00 0.00 0.00 0.00 0.02 0.05 0.07 0.09 0.09 0.11 0.13 0.15 0.17 0.26 0.32 0.39 0.49 0.52 0.59 0.49 0.46 0.39 0.43 0.37 0.51 0.61 0.65 0.50 0.30 0.09 0.21 0.35 0.47 0.39 0.39 0.20 0.09 0.04
0.00 0.00 0.00 0.00 0.00 0.00 0.00 0.00 0.00 0.01 0.01 0.02 0.06 0.08 0.10 0.11 0.13 0.14 0.13 0.17 0.28 0.30 0.39 0.44 0.49 0.49 0.48 0.38 0.32 0.29 0.41 0.57 0.68 0.65 0.41 0.21 0.24 0.26 0.43 0.28 0.23 0.15 0.11